TimeCDT,TemperatureF,Dew PointF,Humidity,Sea Level PressureIn,VisibilityMPH,Wind Direction,Wind SpeedMPH,Gust SpeedMPH,PrecipitationIn,Events,Conditions,WindDirDegrees,DateUTC
12:15 AM,30.2,23.0,75,30.04,10.0,West,8.1,-,N/A,,Clear,280,2013-04-11 05:15:00
12:35 AM,30.2,21.2,69,30.03,10.0,West,6.9,-,N/A,,Clear,280,2013-04-11 05:35:00
12:55 AM,30.2,21.2,69,30.03,10.0,West,8.1,-,N/A,,Clear,280,2013-04-11 05:55:00
1:15 AM,30.2,21.2,69,30.02,10.0,West,8.1,-,N/A,,Clear,270,2013-04-11 06:15:00
1:35 AM,30.2,21.2,69,30.00,10.0,WNW,6.9,-,N/A,,Clear,290,2013-04-11 06:35:00
1:55 AM,30.2,21.2,69,29.99,10.0,WNW,9.2,-,N/A,,Clear,290,2013-04-11 06:55:00
2:15 AM,30.2,21.2,69,29.96,10.0,WNW,9.2,-,N/A,,Clear,300,2013-04-11 07:15:00
2:35 AM,30.2,21.2,69,29.95,10.0,WNW,9.2,-,N/A,,Clear,300,2013-04-11 07:35:00
2:55 AM,30.2,21.2,69,29.95,10.0,WNW,11.5,-,N/A,,Clear,300,2013-04-11 07:55:00
3:15 AM,30.2,19.4,64,29.95,10.0,WNW,9.2,-,N/A,,Clear,300,2013-04-11 08:15:00
3:35 AM,30.2,19.4,64,29.96,10.0,West,5.8,-,N/A,,Clear,280,2013-04-11 08:35:00
3:55 AM,28.4,19.4,69,29.95,10.0,West,4.6,-,N/A,,Clear,260,2013-04-11 08:55:00
4:15 AM,26.6,21.2,80,29.95,10.0,West,6.9,-,N/A,,Clear,270,2013-04-11 09:15:00
4:35 AM,26.6,19.4,74,29.94,10.0,West,6.9,-,N/A,,Clear,280,2013-04-11 09:35:00
4:55 AM,26.6,21.2,80,29.93,10.0,WSW,6.9,-,N/A,,Clear,250,2013-04-11 09:55:00
5:15 AM,26.6,21.2,80,29.92,10.0,West,5.8,-,N/A,,Clear,260,2013-04-11 10:15:00
5:35 AM,26.6,21.2,80,29.93,10.0,West,4.6,-,N/A,,Clear,260,2013-04-11 10:35:00
5:55 AM,26.6,21.2,80,29.92,10.0,Calm,Calm,-,N/A,,Clear,0,2013-04-11 10:55:00
6:15 AM,26.6,21.2,80,29.92,10.0,WSW,4.6,-,N/A,,Clear,240,2013-04-11 11:15:00
6:35 AM,26.6,21.2,80,29.93,10.0,WSW,4.6,-,N/A,,Clear,250,2013-04-11 11:35:00
6:55 AM,26.6,19.4,74,29.93,10.0,WSW,6.9,-,N/A,,Clear,250,2013-04-11 11:55:00
7:15 AM,26.6,21.2,80,29.92,10.0,WSW,9.2,-,N/A,,Clear,240,2013-04-11 12:15:00
7:35 AM,26.6,21.2,80,29.93,10.0,WSW,9.2,-,N/A,,Clear,240,2013-04-11 12:35:00
7:55 AM,28.4,21.2,74,29.93,10.0,SW,6.9,-,N/A,,Clear,230,2013-04-11 12:55:00
8:15 AM,28.4,21.2,74,29.93,10.0,WSW,10.4,-,N/A,,Clear,240,2013-04-11 13:15:00
8:35 AM,30.2,21.2,69,29.92,10.0,West,8.1,-,N/A,,Clear,270,2013-04-11 13:35:00
8:55 AM,32.0,21.2,64,29.92,10.0,West,11.5,-,N/A,,Clear,280,2013-04-11 13:55:00
9:15 AM,32.0,21.2,64,29.92,10.0,NW,9.2,-,N/A,,Clear,310,2013-04-11 14:15:00
9:35 AM,33.8,19.4,56,29.91,10.0,WNW,9.2,-,N/A,,Clear,290,2013-04-11 14:35:00
9:55 AM,35.6,19.4,52,29.91,10.0,WNW,10.4,-,N/A,,Clear,290,2013-04-11 14:55:00
10:15 AM,35.6,19.4,52,29.91,10.0,West,12.7,18.4,N/A,,Clear,280,2013-04-11 15:15:00
10:35 AM,37.4,19.4,48,29.91,10.0,West,11.5,16.1,N/A,,Clear,260,2013-04-11 15:35:00
10:55 AM,39.2,19.4,45,29.91,10.0,West,11.5,18.4,N/A,,Clear,280,2013-04-11 15:55:00
11:15 AM,41.0,21.2,45,29.90,10.0,WNW,10.4,17.3,N/A,,Clear,300,2013-04-11 16:15:00
11:35 AM,41.0,21.2,45,29.88,10.0,West,9.2,-,N/A,,Clear,270,2013-04-11 16:35:00
12:15 PM,42.8,21.2,42,29.86,10.0,SW,5.8,-,N/A,,Clear,220,2013-04-11 17:15:00
12:35 PM,44.6,23.0,43,29.86,10.0,West,6.9,-,N/A,,Clear,260,2013-04-11 17:35:00
12:55 PM,46.4,23.0,40,29.85,10.0,WSW,8.1,17.3,N/A,,Clear,250,2013-04-11 17:55:00
1:15 PM,50.0,23.0,35,29.84,10.0,WSW,12.7,17.3,N/A,,Clear,250,2013-04-11 18:15:00
1:35 PM,51.8,24.8,35,29.81,10.0,SW,11.5,18.4,N/A,,Clear,220,2013-04-11 18:35:00
1:55 PM,53.6,23.0,30,29.81,10.0,SW,12.7,-,N/A,,Clear,230,2013-04-11 18:55:00
2:15 PM,55.4,24.8,31,29.79,10.0,WSW,13.8,21.9,N/A,,Clear,250,2013-04-11 19:15:00
2:35 PM,57.2,24.8,29,29.78,10.0,SW,18.4,23.0,N/A,,Clear,220,2013-04-11 19:35:00
2:55 PM,59.0,24.8,27,29.77,10.0,WSW,13.8,20.7,N/A,,Clear,240,2013-04-11 19:55:00
3:15 PM,60.8,24.8,25,29.77,10.0,WSW,10.4,21.9,N/A,,Clear,240,2013-04-11 20:15:00
3:35 PM,60.8,24.8,25,29.76,10.0,WSW,12.7,18.4,N/A,,Clear,250,2013-04-11 20:35:00
3:55 PM,62.6,24.8,24,29.75,10.0,WSW,17.3,21.9,N/A,,Clear,240,2013-04-11 20:55:00
4:15 PM,62.6,24.8,24,29.73,10.0,WSW,13.8,-,N/A,,Clear,240,2013-04-11 21:15:00
4:35 PM,64.4,23.0,21,29.72,10.0,West,11.5,17.3,N/A,,Clear,280,2013-04-11 21:35:00
4:55 PM,64.4,23.0,21,29.72,10.0,WNW,9.2,-,N/A,,Clear,290,2013-04-11 21:55:00
5:15 PM,66.2,21.2,18,29.71,10.0,West,11.5,23.0,N/A,,Clear,280,2013-04-11 22:15:00
5:35 PM,66.2,21.2,18,29.71,10.0,NW,9.2,-,N/A,,Clear,310,2013-04-11 22:35:00
5:55 PM,68.0,21.2,17,29.72,10.0,NW,16.1,19.6,N/A,,Clear,310,2013-04-11 22:55:00
6:15 PM,68.0,21.2,17,29.72,10.0,NW,12.7,18.4,N/A,,Clear,320,2013-04-11 23:15:00
6:35 PM,64.4,21.2,19,29.73,10.0,NW,13.8,-,N/A,,Clear,320,2013-04-11 23:35:00
6:55 PM,64.4,23.0,21,29.74,10.0,NNW,10.4,-,N/A,,Clear,330,2013-04-11 23:55:00
7:15 PM,62.6,26.6,26,29.75,10.0,NNW,6.9,11.5,N/A,,Clear,330,2013-04-12 00:15:00
7:35 PM,62.6,26.6,26,29.75,10.0,NNW,5.8,-,N/A,,Clear,340,2013-04-12 00:35:00
7:55 PM,59.0,28.4,31,29.75,10.0,NNW,5.8,-,N/A,,Clear,330,2013-04-12 00:55:00
8:15 PM,55.4,30.2,38,29.76,10.0,North,4.6,-,N/A,,Clear,360,2013-04-12 01:15:00
8:35 PM,55.4,30.2,38,29.76,10.0,North,4.6,-,N/A,,Clear,360,2013-04-12 01:35:00
8:55 PM,53.6,28.4,38,29.78,10.0,North,5.8,-,N/A,,Clear,350,2013-04-12 01:55:00
9:15 PM,50.0,32.0,50,29.79,10.0,North,6.9,-,N/A,,Clear,360,2013-04-12 02:15:00
9:35 PM,50.0,30.2,47,29.80,10.0,NNW,9.2,-,N/A,,Clear,340,2013-04-12 02:35:00
9:55 PM,50.0,30.2,47,29.81,10.0,NNW,8.1,-,N/A,,Clear,340,2013-04-12 02:55:00
10:15 PM,46.4,30.2,53,29.83,10.0,NNW,10.4,-,N/A,,Clear,340,2013-04-12 03:15:00
10:35 PM,48.2,28.4,46,29.85,10.0,North,10.4,-,N/A,,Clear,360,2013-04-12 03:35:00
10:55 PM,46.4,28.4,50,29.85,10.0,North,5.8,-,N/A,,Clear,360,2013-04-12 03:55:00
11:15 PM,44.6,28.4,53,29.86,10.0,NNW,5.8,-,N/A,,Clear,340,2013-04-12 04:15:00
11:35 PM,44.6,30.2,57,29.88,10.0,NNW,6.9,-,N/A,,Scattered Clouds,340,2013-04-12 04:35:00
11:55 PM,44.6,28.4,53,29.89,10.0,North,5.8,-,N/A,,Scattered Clouds,350,2013-04-12 04:55:00